Regional Weather Roundup
Issued by NWS

Home | Current Version | Previous Version | Text Only | Print | Product List | Glossary On
Versions: 1 2 3 4 5 6 7 8 9 10 11 12 13 14 15 16 17 18 19 20 21 22 23 24 25 26 27 28 29 30 31 32 33 34 35 36 37 38 39 40 41 42 43 44 45 46 47 48 49 50
000
ASUS42 KTBW 121017
RWRFL
FLORIDA REGIONAL WEATHER ROUNDUP
NATIONAL WEATHER SERVICE TAMPA BAY RUSKIN FL
500 AM EST TUE DEC 12 2017

NOTE: "FAIR" INDICATES FEW OR NO CLOUDS BELOW 12,000 FEET WITH NO
SIGNIFICANT WEATHER AND/OR OBSTRUCTIONS TO VISIBILITY.

FLZ001>010-012>015-112-114-115-121100-
PANHANDLE FLORIDA

CITY           SKY/WX    TMP DP  RH WIND       PRES   REMARKS
PENSACOLA      CLEAR     53  45  74 W13       30.00F
PENSACOLA NAS  CLEAR     55  44  66 W7        30.00F
MILTON NAS     CLEAR     48  43  82 W9        29.99  WCI  44
CRESTVIEW      CLEAR     49  44  83 W8        30.00F
DUKE FIELD     FAIR      51  42  72 W9        29.98F
VALPARAISO     CLEAR     53  42  68 W6        29.99F
MARY ESTHER    CLEAR     56  44  64 W6        29.99F
PANAMA CITY    FAIR      41  37  86 SW5       29.99F WCI  38
TYNDALL AFB    CLEAR     61  50  67 W15       30.00F
APALACHICOLA   CLEAR     56  51  84 W7        30.01F

STATION/POSITION SKY/WX   TEMP    WIND        PRES    WAVE   SWELL
                          AIR SEA DIR/SP/G            HT/PER HT/PER
                          (F)     (DEG/KT/KT) (MB)    (FT/S) (FT/S)
29.2N   88.2W              66 74  270/ 23/ 27 1018.5F   5/ 5
28.8N   86.0W              69 74  280/ 19/ 23 1017.1F   4/ 5
PANAMA CITY BEAC           64 62  280/ 23/ 27 1016.3F
TOWER C                    66     280/ 19/ 21 1017.2F

$$
FLZ011-016>038-118-127-128-134-139-239-121100-
NORTH FLORIDA

CITY           SKY/WX    TMP DP  RH WIND       PRES   REMARKS
MARIANNA       CLEAR     50  45  83 SW7       29.97F
TALLAHASSEE    PTCLDY    36  34  92 E5        29.99F WCI  32
PERRY          CLEAR     40  39  97 CALM      30.01F
LIVE OAK       FOG       41  41 100 CALM      30.01F VSB 1/2
CROSS CITY     MOCLDY    38  37  99 CALM      30.08S
LAKE CITY      FOG       41  41 100 CALM      30.01S VSB 1/4
GAINESVILLE    CLEAR     37  36  96 CALM      30.06F
WILLISTON        N/A     39  39 100 CALM      30.04F
PALATKA        FAIR      39  39 100 CALM      30.04S
MAYPORT NAS    CLEAR     45  45 100 SW6       29.99F WCI  42
JACKSONVILLE   CLEAR     45  43  93 SW3       29.99F
JAX NAS        CLEAR     46  44  93 SW5       30.01F WCI  44
JAX CECIL        N/A     37  37 100 MISG      30.00F
ST AUGUSTINE   CLEAR     45  43  93 SW7       30.03F WCI  41
PALM COAST     FAIR      41  39  94 CALM      30.04F

STATION/POSITION SKY/WX   TEMP    WIND        PRES    WAVE   SWELL
                          AIR SEA DIR/SP/G            HT/PER HT/PER
                          (F)     (DEG/KT/KT) (MB)    (FT/S) (FT/S)
SHELL POINT      NOT AVBL
KEATON BEACH               58     250/  7/  8 1015.9F
CEDAR KEY                  60     270/  4/  5 1017.1F
FERNANDINA                 50 59  220/  6/ 12 1016.2F
30.7N   81.3W                 60                N/A     2/ 3
MAYPORT                    49 61  220/  6/  8 1016.0F
31.4N   80.9W              56 61  230/ 19/ 23 1014.0F   4/ 4   2/ 9
ST AUGUSTINE               45 62  230/  8/  9 1016.7F

$$
FLZ040-043>046-052-053-057-058-063-144-121100-
INTERIOR CENTRAL FLORIDA

CITY           SKY/WX    TMP DP  RH WIND       PRES   REMARKS
OCALA          CLEAR     38  37  97 S5        30.06S WCI  34
LEESBURG       CLEAR     51  47  86 SW7       30.06F
SANFORD        CLEAR     45  42  89 S3        30.06F
ORLANDO EXEC   CLEAR     48  45  89 SW9       30.06F WCI  44
ORLANDO INTL   NOT AVBL
KISSIMMEE      CLEAR     43  41  93 SW3       30.09S
WINTER HAVEN   CLEAR     48  44  86 SW8       30.09F WCI  44
LAKELAND       CLEAR     41  39  93 S3        30.09S
BARTOW         FAIR      43  43 100 SW3       30.08F
SEBRING        FAIR      46  38  75 W3        30.09F

$$
FLZ041-047-054-059-064-141-147-121100-
EAST CENTRAL FLORIDA

CITY           SKY/WX    TMP DP  RH WIND       PRES   REMARKS
DAYTONA BEACH  PTCLDY    43  42  97 S5        30.05F WCI  40
DELAND         CLEAR     45  43  93 S3        30.04F
JFK SPACE CTR  CLEAR     42  42 100 S3        30.05F
CAPE CANAVERAL CLEAR     41  37  87 S3        30.06S
PATRICK AFB    CLEAR     48  45  88 SW8       30.06F WCI  45
MELBOURNE      CLEAR     45  40  82 S3        30.07F
VERO BEACH     CLEAR     40  38  93 CALM      30.08F
FT PIERCE      CLEAR     39  38  96 CALM      30.08F
STUART         CLEAR     45  41  87 W5        30.10S WCI  42

STATION/POSITION SKY/WX   TEMP    WIND        PRES    WAVE   SWELL
                          AIR SEA DIR/SP/G            HT/PER HT/PER
                          (F)     (DEG/KT/KT) (MB)    (FT/S) (FT/S)
28.5N   80.2W              60 76  270/ 14/ 17 1017.9F   3/ 8   2/ 8
TRIDENT PIER               53 70  220/  8/  9 1019.7F
28.4N   80.5W                 69                N/A     1/11
27.5N   80.2W                 71                N/A     2/ 6

$$
FLZ050-056-061-142-242-148-248-149-249-151-251-155-255-
160-260-121100-
WEST CENTRAL FLORIDA

CITY           SKY/WX    TMP DP  RH WIND       PRES   REMARKS
CRYSTAL RIVER  FAIR      37  37 100 CALM      30.06S
INVERNESS      FAIR      36  36 100 CALM      30.06F
BROOKSVILLE    PTCLDY    43  42  97 S3        30.07F
CLEARWATER AIR FAIR      52  50  93 S3        30.06F
ST PETE CLEARW CLEAR     52  51  97 S7        30.07F
TAMPA INTL     CLEAR     53  49  86 SE3       30.08F
TAMPA EXEC     CLEAR     37  37 100 CALM      30.09S
PLANT CITY     CLEAR     46  43  87 S3        30.09F
MACDILL AFB    CLEAR     56  51  84 S9        30.07S
PETER O KNIGHT   N/A     54  52  94 S7        30.08F
ST PETERSBURG  CLEAR     56  52  86 S9        30.06F
SARASOTA       PTCLDY    47  44  90 SE6       30.08F WCI  44
VENICE         NOT AVBL

STATION/POSITION SKY/WX   TEMP    WIND        PRES    WAVE   SWELL
                          AIR SEA DIR/SP/G            HT/PER HT/PER
                          (F)     (DEG/KT/KT) (MB)    (FT/S) (FT/S)
27.3N   84.2W                 75                N/A     3/ 4
CLEARWATER BEACH           59 63  160/  7/ 10 1018.3F
MIDDLE TAMPA BAY           55     180/ 12/ 13 1018.5F
VENICE                     51 67   90/  9/ 10 1018.7F

$$
FLZ066-069-070-075>078-162-262-165-265-121100-
SOUTHWEST FLORIDA AND KEYS

CITY           SKY/WX    TMP DP  RH WIND       PRES   REMARKS
PUNTA GORDA    PTCLDY    42  40  92 CALM      30.11F
FT MYERS       CLEAR     45  43  93 CALM      30.09F
SOUTHWEST INTL CLEAR     45  45 100 CALM      30.09F
NAPLES         CLEAR     47  45  93 CALM      30.09F
MARCO ISLAND   CLEAR     45  44  97 E3        30.11F
IMMOKALEE      FAIR      39  37  93 CALM      30.11F
MARATHON       CLEAR     60  43  53 N5        30.10S
KEY WEST NAS   CLEAR     57  53  86 E6        30.10F
KEY WEST INTL  CLEAR     58  51  78 E5        30.10F

STATION/POSITION SKY/WX   TEMP    WIND        PRES    WAVE   SWELL
                          AIR SEA DIR/SP/G            HT/PER HT/PER
                          (F)     (DEG/KT/KT) (MB)    (FT/S) (FT/S)
NAPLES                        67   90/  5/  6 1018.8F
DRY TORTUGAS               67      60/  2/  5 1019.3F
SAND KEY                   65                 1019.7F
MOLASSES REEF              59 75  360/ 12/ 13 1019.1F

$$
FLZ067-068-071>074-168-172>174-121100-
SOUTHEAST FLORIDA

CITY           SKY/WX    TMP DP  RH WIND       PRES   REMARKS
W PALM BEACH   CLEAR     45  42  89 NW3       30.09F
FT LAUDER-EXEC CLEAR     48  42  80 NW3       30.09F
FT LAUDERDALE  CLEAR     50  46  86 NW5       30.08F
POMPANO BEACH  CLEAR     49  47  93 W5        30.09F
PEMBROKE PINES CLEAR     47  45  93 CALM      30.10F
OPA LOCKA      CLEAR     49  46  90 CALM      30.09F
MIAMI          CLEAR     51  47  86 CALM      30.09F
WEST KENDALL   CLEAR     44  43  96 CALM      30.09F FOG
HOMESTEAD      NOT AVBL

STATION/POSITION SKY/WX   TEMP    WIND        PRES    WAVE   SWELL
                          AIR SEA DIR/SP/G            HT/PER HT/PER
                          (F)     (DEG/KT/KT) (MB)    (FT/S) (FT/S)
PORT EVERGLADES            55     290/  7/  8 1018.5F
VIRGINIA KEY               58 72  330/  2/  4 1018.5F
LAKE WORTH                 51 77  300/  6/  7 1019.8F
FOWEY ROCKS                61 76  330/ 12/ 13 1019.1F
SETTLEMENT POINT           67     250/  3/  6 1017.8F

$$




USA.gov is the U.S. government's official web portal to all federal, state and local government web resources and services.